Location: Archemont
(49.1579°N, 1.7598°E)
Time: 19:25:28
(UTC+00:00)

S-56A Canister/Altair - Pass Details

Date: 22 April 2024
Orbit: 633 x 2485 km, 38.9° (Epoch: 16 May)

Event Time Altitude Azimuth Distance (km) Brightness Sun altitude
Rises 15:47:30 0° 214° (SSW) 3,028 11.3 29.5°
Reaches altitude 10° 15:50:16 10° 195° (SSW) 2,248 10.4 29.1°
Maximum altitude 15:53:51 19° 150° (SSE) 1,924 9.6 28.5°
Drops below altitude 10° 15:58:13 10° 108° (ESE) 2,823 10.0 27.8°
Sets 16:02:15 0° 92° (E) 4,130 10.7 27.2°
